Regional Weather Roundup
Issued by NWS

Home | Current Version | Previous Version | Graphics & Text | Print | Product List | Glossary On
Versions: 1 2 3 4 5 6 7 8 9 10 11 12 13 14 15 16 17 18 19 20 21 22 23 24 25 26 27 28 29 30 31 32 33 34 35 36 37 38 39 40 41 42 43 44 45 46 47 48 49 50
000
ASUS45 KTFX 270319
RWRMT
MONTANA HOURLY WEATHER ROUNDUP
NATIONAL WEATHER SERVICE GREAT FALLS MT
819 PM MST THU FEB 26 2015

NOTE: "FAIR" INDICATES FEW OR NO CLOUDS BELOW 12000 FEET WITH NO
SIGNIFICANT WEATHER AND/OR OBSTRUCTIONS TO VISIBILITY.

* THESE STATIONS ARE NOT UNDER NWS QUALITY CONTROL. THEY DO NOT
   REPORT WEATHER SUCH AS PRECIPITATION OR FOG.

MTZ001>007-043-270400-
WEST OF THE DIVIDE
CITY           SKY/WX    TMP DP  RH WIND       PRES   REMARKS
KALISPELL      MOCLDY    27  18  69 NW5       29.99F WCI  21
MISSOULA       MOCLDY    32  16  52 E10       30.00S WCI  24
BUTTE          PTCLDY    14   9  80 S14       29.97S WCI  -1
MULLAN PASS    CLOUDY    25  18  75 SE6       29.87F WCI  18
* ANACONDA     PTCLDY    12   9  88 SW3        N/A
* ESSEX        N/A       19   9  65 SE8G15     N/A   WCI   9
* EUREKA APT   CLOUDY    34  16  48 SE10      29.99F WCI  26
* HAMILTON APT PTCLDY    27  18  69 S2        29.96F
* LIBBY APT    CLOUDY    34  21  59 CALM      29.98F
* LINCOLN      N/A       18   5  57 NE5G10     N/A   WCI  11
* LOOKOUT PASS N/A       29  20  69 SE1        N/A
* POLSON       N/A       26  17  69 N/A        N/A
* RONAN APT    CLOUDY    28  21  75 N/A        N/A
* SEELEY LAKE  N/A       16   9  74 N3         N/A
* THOMP F APT  MOCLDY    21   7  55 N4G10      N/A
$$

MTZ008-052>055-270400-
SOUTHWEST MONTANA
CITY           SKY/WX    TMP DP  RH WIND       PRES   REMARKS
BOZEMAN        CLEAR     12   3  67 SE15      30.06F WCI  -4
DILLON         PTCLDY    16   9  74 NE9       29.97S WCI   5
* W YELLOWSTON PTCLDY    15   1  54 E2G8       N/A
* THREE FORKS  CLEAR     16   9  74 N/A        N/A
* BOULDER HILL N/A       15   7  70 S5         N/A   WCI   7
* MONIDA PASS  N/A       16   9  74 NW2        N/A
* RAYNOLDS PAS N/A        8   7  96 NW9        N/A   WCI  -5
* WHITEHALL    N/A       18   9  68 E6G12      N/A   WCI  10
* WISE RIVER   N/A       22  12  65 SE8        N/A   WCI  13
$$

MTZ009>010-012-014-046-048-049-054-270400-
EAST SLOPES AND CENTRAL MONTANA
CITY           SKY/WX    TMP DP  RH WIND       PRES   REMARKS
CUT BANK       CLOUDY    10   7  88 SE13      30.07F WCI  -5
GREAT FALLS    CLEAR     10   3  73 E10       30.09F WCI  -4
HELENA         PTCLDY    18  10  71 CALM      30.08F
* CONRAD       PTCLDY    12   7  80 E12        N/A   WCI  -2
* DEARBORN     N/A       11   6  80 S1         N/A
* EAST GLACIER N/A        2  -2  83 N/A        N/A
* MONARCH      N/A       -2  -8  75 SE8        N/A   WCI -17
* PENDROY      N/A        8   5  87 S8         N/A   WCI  -4
* ROGERS PASS  N/A        3  -1  83 N/A        N/A
* SWEET GRASS  N/A        7   3  83 S23G30     N/A   WCI -14
* WHITE SULPH  N/A        7  -1  69 NE7G14     N/A   WCI  -5
$$

MTZ011-013-016-021-035-040-045-047-050-051-270400-
NORTH CENTRAL MONTANA
CITY           SKY/WX    TMP DP  RH WIND       PRES   REMARKS
HAVRE          CLEAR      9   1  70 E7        30.23F WCI  -2
LEWISTOWN      PTCLDY     3  -2  79 E9        30.12F WCI -11
* N BAR RANCH  PTCLDY     1  -4  79 E6        30.15F WCI -11
* CHINOOK      CLEAR      5  -2  72 E9        30.28F WCI  -9
* FORT BENTON  CLEAR     10   3  73 NE13G18   30.19F WCI  -5
* CHESTER      N/A        8   3  80 SE5G10     N/A   WCI  -1
* DENTON       N/A       11  -1  58 SE18G24    N/A   WCI  -7
* GEYSER       N/A       -4  -8  83 SW6        N/A   WCI -17
* JUDITH GAP   N/A        8   2  76 SE14       N/A   WCI  -9
* LOMA         N/A       11   4  73 E15        N/A   WCI  -5
$$

MTZ017>020-022>027-061-062-270400-
NORTHEAST MONTANA
CITY           SKY/WX    TMP DP  RH WIND       PRES   REMARKS
GLASGOW        CLEAR      5  -4  66 E9        30.38F WCI  -9
GLENDIVE       CLEAR      7  -4  60 E5        30.41F WCI  -2
JORDAN         CLEAR      3  -2  79 CALM      30.35F
SIDNEY         CLEAR      3  -6  66 CALM      30.49F
WOLF POINT     CLEAR      7  -2  66 CALM      30.44F
* BEAVER HILL  N/A        4  -6  63 SE7        N/A   WCI  -8
* CIRCLE       N/A        5  -3  69 N/A        N/A
* LINDSAY DVD  N/A        2  -6  69 SE4        N/A
* NAVAJO       N/A        0  -6  75 SE6        N/A   WCI -12
* POPLAR APT   CLEAR      7  -2  66 E5        30.45F WCI  -2
* SACO         N/A        5  -4  66 E9         N/A   WCI  -9
* SCOBEY APT   CLEAR      5  -9  52 SE7        N/A   WCI  -7
$$

MTZ028>042-056>058-270400-
SOUTHCENTRAL AND SOUTHEAST MONTANA
CITY           SKY/WX    TMP DP  RH WIND       PRES   REMARKS
BAKER          CLEAR      0  -6  75 S3        30.38F
BILLINGS       CLEAR      9   0  66 SE8       30.24F WCI  -3
LIVINGSTON     CLOUDY    10   1  67 E13       30.11F WCI  -5
MILES CITY     CLEAR      3  -2  79 SE6       30.39F WCI  -8
* BIG TIMBER A PTCLDY     9   1  70 E7        30.15F WCI  -2
* FORSYTH APT  CLEAR      3  -2  79 SE5       30.36F WCI  -7
* LAUREL APT   CLEAR      3  -4  72 N/A        N/A
* ROUNDUP APT  CLEAR      9  -6  50 N/A        N/A
* ALZADA       N/A       -5  -9  82 E2         N/A
* HYSHAM       N/A        2  -6  69 SE2        N/A
* LAME DEER    N/A       -2  -6  83 E8         N/A   WCI -17
* REED POINT   N/A       11   4  73 E5         N/A   WCI   2
* ROSCOE HILL  N/A        3  -3  76 E4         N/A
$$

REGIONAL REPORTS...DAKOTAS
CITY           SKY/WX    TMP DP  RH WIND       PRES   REMARKS
WILLISTON      PTCLDY    -9 -15  74 CALM      30.47F
DICKINSON      CLEAR      0  -9  65 SE3       30.40F
BEACH          CLEAR      0  -4  83 S3        30.41F
CROSBY         CLEAR    -11 -17  74 S5        30.48F WCI -23
TIOGA          CLEAR    -17 -18  95 SW5       30.47F WCI -30
WATFORD CITY   CLEAR     -6 -11  78 SW3       30.45F
BISMARCK       PTCLDY     1  -6  72 W5        30.52F WCI  -9
GRAND FORKS    FAIR      -6 -11  78 W6        30.51S WCI -19
FARGO          CLEAR      1  -8  65 NW9       30.52F WCI -14
BUFFALO SD     CLEAR      5  -8  54 E6        30.31F WCI  -6
RAPID CITY     CLEAR     -4 -11  71 NW8       30.38F WCI -19
$$

REGIONAL REPORTS...WYOMING/IDAHO/WASHINGTON
CITY           SKY/WX    TMP DP  RH WIND       PRES   REMARKS
GILLETTE       CLEAR     -8 -13  78 S3        30.23F
SHERIDAN       PTCLDY    -2  -8  75 SW5       30.23F WCI -13
CODY           MOCLDY     5   5 100 CALM      30.10F
YELLOWSTONE LA PTCLDY    10   0  64 CALM      29.88F
SALMON         PTCLDY    34  18  52 CALM      29.91F
MULLAN PASS    CLOUDY    25  18  75 SE6       29.87S WCI  18
SAND POINT     CLOUDY    32  32 100 CALM      29.98F
SPOKANE        CLOUDY    39  30  70 E5        29.96F WCI  35
$$

REGIONAL REPORTS...ALBERTA
CITY           SKY/WX    TMP DP  RH WIND       PRES   REMARKS
CALGARY        MOCLDY    12   7  80 S13       30.02F WCI  -3
LETHBRIDGE     PTCLDY    14   9  80 S10       30.07F WCI   1
MEDICINE HAT   N/A        9   0  66 SE5       30.21F
EDMONTON       MOCLDY     9   1  70 S7        30.14F WCI  -2
WATERTON GATE  N/A        5   1  83 NE2        N/A
CARDSTON       N/A       10   5  80 S10        N/A   WCI  -4
MILK RIVER     N/A        9   5  84 S18        N/A   WCI  -9
$$

REGIONAL REPORTS...SASKATCHEWAN
CITY           SKY/WX    TMP DP  RH WIND       PRES   REMARKS
SWIFT CURRENT  CLEAR     -2  -8  75 S12       30.26F WCI -20
REGINA         N/A       -9 -13  82 SE7       30.42F WCI -24
VAL MARIE      N/A        5  -2  72 S12        N/A   WCI -11

$$




USA.gov is the U.S. government's official web portal to all federal, state and local government web resources and services.